DMSP 5D-2 F13 DEB, 42279

Orbit data source: Space-Track

DMSP 5D-2 F13 DEB, 42279 is space debris in SSO originally from a launch on Fri, 24 Mar 1995 UTC launched from the Air Force Western Test Range (AFWTR). Debris objects in space refer to the collection of defunct objects orbiting the Earth. Examples of debris include non-operational satellites, rocket bodies, and fragments generated from explosions, collisions, or faulty payload assembly.

Loading next visibility...
Identifier
42279, 1995-015GV
Orbit
SSO
Country
Flag of USUS
Related business
Manufacturer
Unknown
Mission
Spacecraft
Bus & Motor
Unknown
Mass
Unknown
Launch date (UTC)
1995-03-24 (31 years ago)
Launch vehicle
Unknown
Launch site
Air Force Western Test Range (AFWTR)
Object type
Payload
Rocket body
Debris
Shape & HBR
Unknown shape, 0.1 m
Radar Cross Section
Small (<0.1 m²)

Expand to show TLE details & history
Last TLE update: 5 months ago

TLE from 5 months ago
0 DMSP 5D-2 F13 DEB
1 42279U 95015GV  25260.40195714  .00027917  00000-0  39250-2 0  9997
2 42279  98.7433 319.9736 0011812 165.8503 194.3038 14.77266932542195
Epoch: 2025-09-17T09:38Z
TLE epoch observation values (Epoch: 2025-09-17T09:38:49.096Z)
Latitude
-0.00004°
Longitude
178.69061°
Altitude
648.988 km
Speed
7.529 km/s
True Right ascension
21h 19m 53s
True Declination
0° 00' 00"
Sunlit
Object was in full shadow at epoch
Visualization orbit readout
Latitude
Unknown
Longitude
Unknown
Altitude
Unknown
Speed
Unknown
Apparent Right ascension
Unknown
Apparent Declination
Unknown
Sunlit
N/A
Visualization observer readout
Local Sidereal Time
15:13:06
Azimuth
Unknown
Elevation
Unknown
Doppler factor
Unknown
Orbital elements
Apogee altitude
643.333 km
Perigee altitude
626.765 km
Semi-major axis
7,013.186 km
Eccentricity
0.00118
Inclination
98.7433°
RAAN
319.9736°
Arg. of periapsis
165.8503°
True anomaly
194.27041°
Mean anomaly
194.3038°
Eccentric anomaly
194.2871°
Mean motion
3.69547 °/min
Orbital period
97.42 mins
BSTAR
0.003925
Loading maneuver chart data...
Computing Atmospheric mass density...

Documentation

Showing up to 5 results
|